| time (UTC) | temp C | wind direction | speed KPH | gust KPH | rain 1hr cm | rain 24hr cm | rain mn cm | humidity % | barometer mb |
| 20260902023944 | 29 | 153 | 1.6 | 4.8 | 0.00 | 0.00 | 0.00 | 63 | 1011.3 |
| 20260902023443 | 29 | 93 | 1.6 | 4.8 | 0.00 | 0.00 | 0.00 | 63 | 1011.2 |
| 20260902022938 | 29 | 158 | 3.2 | 6.4 | 0.00 | 0.00 | 0.00 | 63 | 1011.2 |
| 20260902022437 | 29 | 113 | 3.2 | 6.4 | 0.00 | 0.00 | 0.00 | 63 | 1011.1 |
| 20260902021938 | 29 | 146 | 3.2 | 8.0 | 0.00 | 0.00 | 0.00 | 63 | 1011.1 |
| 20260902021438 | 29 | 137 | 4.8 | 8.0 | 0.00 | 0.00 | 0.00 | 63 | 1011.0 |
| 20260902020437 | 30 | 119 | 3.2 | 6.4 | 0.00 | 0.00 | 0.00 | 62 | 1010.9 |
| 20260902015937 | 30 | 119 | 3.2 | 4.8 | 0.00 | 0.00 | 0.00 | 61 | 1010.9 |
| 20260902015439 | 30 | 178 | 3.2 | 6.4 | 0.00 | 0.00 | 0.00 | 61 | 1010.8 |
| 20260902014436 | 30 | 168 | 3.2 | 6.4 | 0.00 | 0.00 | 0.00 | 60 | 1010.5 |
| 20260902013936 | 30 | 123 | 3.2 | 4.8 | 0.00 | 0.00 | 0.00 | 59 | 1010.5 |
| 20260902013435 | 30 | 142 | 3.2 | 4.8 | 0.00 | 0.00 | 0.00 | 58 | 1010.6 |
| 20260902012935 | 30 | 123 | 3.2 | 4.8 | 0.00 | 0.00 | 0.00 | 58 | 1010.5 |
| 20260902012436 | 31 | 119 | 3.2 | 4.8 | 0.00 | 0.00 | 0.00 | 57 | 1010.4 |
| 20260902011935 | 31 | 119 | 1.6 | 6.4 | 0.00 | 0.00 | 0.00 | 56 | 1010.4 |
| 20260902011435 | 31 | 126 | 3.2 | 6.4 | 0.00 | 0.00 | 0.00 | 56 | 1010.3 |
| 20260902010935 | 31 | 111 | 3.2 | 8.0 | 0.00 | 0.00 | 0.00 | 54 | 1010.4 |
| 20260902010434 | 32 | 123 | 3.2 | 9.7 | 0.00 | 0.00 | 0.00 | 53 | 1010.3 |
| 20260902005934 | 32 | 126 | 4.8 | 9.7 | 0.00 | 0.00 | 0.00 | 52 | 1010.3 |
| 20260902005435 | 32 | 178 | 4.8 | 11.3 | 0.00 | 0.00 | 0.00 | 52 | 1010.2 |
| 20260902004934 | 32 | 173 | 6.4 | 12.9 | 0.00 | 0.00 | 0.00 | 52 | 1010.2 |
| 20260902003934 | 32 | 183 | 6.4 | 12.9 | 0.00 | 0.00 | 0.00 | 51 | 1010.2 |
| 20260902003433 | 32 | 168 | 6.4 | 11.3 | 0.00 | 0.00 | 0.00 | 51 | 1010.0 |
| 20260902002433 | 33 | 198 | 4.8 | 9.7 | 0.00 | 0.00 | 0.00 | 50 | 1009.9 |
| 20260902001933 | 33 | 162 | 3.2 | 9.7 | 0.00 | 0.00 | 0.00 | 50 | 1010.2 |
| 20260902001433 | 33 | 178 | 4.8 | 11.3 | 0.00 | 0.00 | 0.00 | 50 | 1010.0 |
| 20260902000932 | 33 | 214 | 3.2 | 11.3 | 0.00 | 0.00 | 0.00 | 50 | 1010.2 |
| 20260902000432 | 33 | 200 | 6.4 | 11.3 | 0.00 | 0.00 | 0.00 | 49 | 1010.2 |
| 20260901235932 | 33 | 221 | 6.4 | 16.1 | 0.00 | 0.00 | 0.00 | 49 | 1010.3 |
| 20260901235432 | 34 | 196 | 8.0 | 16.1 | 0.00 | 0.00 | 0.00 | 49 | 1010.4 |
| 20260901234431 | 34 | 200 | 6.4 | 19.3 | 0.00 | 0.00 | 0.00 | 49 | 1010.4 |
| 20260901233431 | 34 | 156 | 8.0 | 16.1 | 0.00 | 0.00 | 0.00 | 49 | 1010.5 |
| 20260901232930 | 34 | 163 | 9.7 | 16.1 | 0.00 | 0.00 | 0.00 | 49 | 1010.4 |
| 20260901232430 | 34 | 195 | 8.0 | 14.5 | 0.00 | 0.00 | 0.00 | 50 | 1010.6 |
| 20260901231931 | 34 | 208 | 4.8 | 16.1 | 0.00 | 0.00 | 0.00 | 51 | 1010.5 |
| 20260901225930 | 34 | 232 | 11.3 | 22.5 | 0.00 | 0.00 | 0.00 | 50 | 1010.7 |
| 20260901224927 | 35 | 234 | 11.3 | 19.3 | 0.00 | 0.00 | 0.00 | 50 | 1010.8 |
| 20260901224428 | 35 | 187 | 6.4 | 17.7 | 0.00 | 0.00 | 0.00 | 51 | 1010.7 |
| 20260901223927 | 35 | 203 | 6.4 | 17.7 | 0.00 | 0.00 | 0.00 | 50 | 1010.8 |
| 20260901223428 | 35 | 196 | 9.7 | 22.5 | 0.00 | 0.00 | 0.00 | 49 | 1010.8 |
| 20260901222427 | 35 | 257 | 9.7 | 25.7 | 0.00 | 0.00 | 0.00 | 50 | 1010.8 |
| 20260901221427 | 35 | 196 | 11.3 | 22.5 | 0.00 | 0.00 | 0.00 | 49 | 1010.9 |
| 20260901220926 | 35 | 215 | 9.7 | 17.7 | 0.00 | 0.00 | 0.00 | 51 | 1011.0 |
| 20260901220424 | 34 | 193 | 8.0 | 24.1 | 0.00 | 0.00 | 0.00 | 51 | 1011.0 |
| 20260901215924 | 34 | 203 | 11.3 | 25.7 | 0.00 | 0.00 | 0.00 | 49 | 1011.0 |
| 20260901215425 | 34 | 170 | 9.7 | 24.1 | 0.00 | 0.00 | 0.00 | 51 | 1011.0 |
| 20260901214924 | 34 | 203 | 11.3 | 24.1 | 0.00 | 0.00 | 0.00 | 51 | 1010.9 |
| 20260901214423 | 34 | 188 | 12.9 | 22.5 | 0.00 | 0.00 | 0.00 | 51 | 1011.1 |
| 20260901213924 | 34 | 227 | 9.7 | 20.9 | 0.00 | 0.00 | 0.00 | 51 | 1011.1 |
| 20260901213424 | 34 | 171 | 9.7 | 17.7 | 0.00 | 0.00 | 0.00 | 51 | 1011.0 |
| 20260901212423 | 34 | 203 | 8.0 | 22.5 | 0.00 | 0.00 | 0.00 | 51 | 1011.2 |
| 20260901211923 | 34 | 210 | 12.9 | 22.5 | 0.00 | 0.00 | 0.00 | 51 | 1011.3 |
| 20260901211424 | 34 | 262 | 11.3 | 20.9 | 0.00 | 0.00 | 0.00 | 52 | 1011.3 |
| 20260901210423 | 34 | 194 | 6.4 | 17.7 | 0.00 | 0.00 | 0.00 | 53 | 1011.2 |
| 20260901205923 | 34 | 189 | 8.0 | 17.7 | 0.00 | 0.00 | 0.00 | 54 | 1011.3 |
| 20260901205425 | 34 | 201 | 9.7 | 27.4 | 0.00 | 0.00 | 0.00 | 52 | 1011.4 |
| 20260901204923 | 34 | 200 | 16.1 | 27.4 | 0.00 | 0.00 | 0.00 | 51 | 1011.5 |
| 20260901204423 | 34 | 196 | 11.3 | 19.3 | 0.00 | 0.00 | 0.00 | 51 | 1011.4 |
| 20260901203422 | 33 | 211 | 8.0 | 20.9 | 0.00 | 0.00 | 0.00 | 52 | 1011.5 |
| 20260901202922 | 33 | 162 | 9.7 | 22.5 | 0.00 | 0.00 | 0.00 | 52 | 1011.6 |
| 20260901202422 | 33 | 214 | 9.7 | 22.5 | 0.00 | 0.00 | 0.00 | 52 | 1011.6 |
| 20260901201922 | 34 | 200 | 8.0 | 19.3 | 0.00 | 0.00 | 0.00 | 53 | 1011.7 |
| 20260901200921 | 33 | 210 | 4.8 | 19.3 | 0.00 | 0.00 | 0.00 | 55 | 1011.7 |
| 20260901200422 | 33 | 198 | 8.0 | 22.5 | 0.00 | 0.00 | 0.00 | 53 | 1011.7 |
| 20260901195921 | 33 | 187 | 8.0 | 22.5 | 0.00 | 0.00 | 0.00 | 51 | 1011.8 |
| 20260901195422 | 33 | 226 | 11.3 | 19.3 | 0.00 | 0.00 | 0.00 | 51 | 1011.9 |
| 20260901194921 | 33 | 162 | 8.0 | 19.3 | 0.00 | 0.00 | 0.00 | 53 | 1011.9 |
| 20260901194421 | 33 | 123 | 6.4 | 17.7 | 0.00 | 0.00 | 0.00 | 53 | 1011.9 |
| 20260901193421 | 33 | 202 | 6.4 | 20.9 | 0.00 | 0.00 | 0.00 | 50 | 1012.0 |
| 20260901192920 | 33 | 123 | 9.7 | 20.9 | 0.00 | 0.00 | 0.00 | 50 | 1012.1 |
| 20260901192420 | 33 | 129 | 8.0 | 16.1 | 0.00 | 0.00 | 0.00 | 50 | 1012.2 |
| 20260901191920 | 33 | 202 | 9.7 | 16.1 | 0.00 | 0.00 | 0.00 | 52 | 1012.3 |
| 20260901191419 | 33 | 191 | 6.4 | 16.1 | 0.00 | 0.00 | 0.00 | 50 | 1012.3 |
| 20260901190920 | 33 | 123 | 6.4 | 19.3 | 0.00 | 0.00 | 0.00 | 52 | 1012.4 |
| 20260901190419 | 33 | 115 | 11.3 | 19.3 | 0.00 | 0.00 | 0.00 | 51 | 1012.3 |
| 20260901185919 | 33 | 205 | 8.0 | 16.1 | 0.00 | 0.00 | 0.00 | 51 | 1012.4 |
| 20260901185420 | 33 | 158 | 6.4 | 16.1 | 0.00 | 0.00 | 0.00 | 53 | 1012.5 |
| 20260901184919 | 33 | 184 | 4.8 | 12.9 | 0.00 | 0.00 | 0.00 | 52 | 1012.5 |
| 20260901183918 | 33 | 93 | 6.4 | 14.5 | 0.00 | 0.00 | 0.00 | 51 | 1012.6 |
| 20260901182919 | 32 | 137 | 6.4 | 16.1 | 0.00 | 0.00 | 0.00 | 53 | 1012.7 |
| 20260901182418 | 32 | 208 | 6.4 | 17.7 | 0.00 | 0.00 | 0.00 | 51 | 1012.7 |
| 20260901181918 | 33 | 189 | 8.0 | 17.7 | 0.00 | 0.00 | 0.00 | 53 | 1012.7 |
| 20260901181418 | 33 | 173 | 6.4 | 14.5 | 0.00 | 0.00 | 0.00 | 52 | 1012.9 |
| 20260901180918 | 32 | 259 | 6.4 | 16.1 | 0.00 | 0.00 | 0.00 | 56 | 1012.8 |
| 20260901180417 | 32 | 140 | 6.4 | 16.1 | 0.00 | 0.00 | 0.00 | 53 | 1012.9 |
| 20260901175917 | 32 | 221 | 6.4 | 14.5 | 0.00 | 0.00 | 0.00 | 52 | 1012.9 |
| 20260901174416 | 32 | 227 | 4.8 | 11.3 | 0.00 | 0.00 | 0.00 | 52 | 1013.1 |
| 20260901173916 | 32 | 151 | 6.4 | 12.9 | 0.00 | 0.00 | 0.00 | 52 | 1013.0 |
| 20260901173416 | 32 | 129 | 6.4 | 12.9 | 0.00 | 0.00 | 0.00 | 55 | 1013.0 |
| 20260901172917 | 32 | 234 | 4.8 | 12.9 | 0.00 | 0.00 | 0.00 | 53 | 1013.1 |
| 20260901172416 | 32 | 160 | 6.4 | 14.5 | 0.00 | 0.00 | 0.00 | 53 | 1013.1 |
| 20260901171916 | 32 | 196 | 6.4 | 14.5 | 0.00 | 0.00 | 0.00 | 53 | 1013.3 |
| 20260901171416 | 32 | 167 | 6.4 | 11.3 | 0.00 | 0.00 | 0.00 | 53 | 1013.1 |
| 20260901170916 | 32 | 153 | 6.4 | 12.9 | 0.00 | 0.00 | 0.00 | 53 | 1013.1 |
| 20260901170416 | 31 | 188 | 4.8 | 12.9 | 0.00 | 0.00 | 0.00 | 51 | 1013.3 |
| 20260901165915 | 31 | 126 | 3.2 | 11.3 | 0.00 | 0.00 | 0.00 | 53 | 1013.4 |
| 20260901165417 | 31 | 230 | 4.8 | 11.3 | 0.00 | 0.00 | 0.00 | 54 | 1013.4 |
| 20260901164915 | 31 | 178 | 6.4 | 16.1 | 0.00 | 0.00 | 0.00 | 53 | 1013.5 |
| 20260901164415 | 31 | 170 | 3.2 | 16.1 | 0.00 | 0.00 | 0.00 | 53 | 1013.4 |
| 20260901163415 | 31 | 185 | 6.4 | 9.7 | 0.00 | 0.00 | 0.00 | 53 | 1013.4 |
| 20260901162914 | 31 | 137 | 3.2 | 12.9 | 0.00 | 0.00 | 0.00 | 54 | 1013.5 |
| 20260901162415 | 31 | 101 | 6.4 | 12.9 | 0.00 | 0.00 | 0.00 | 53 | 1013.4 |
| 20260901161415 | 31 | 225 | 4.8 | 9.7 | 0.00 | 0.00 | 0.00 | 56 | 1013.6 |
| 20260901160914 | 31 | 230 | 3.2 | 14.5 | 0.00 | 0.00 | 0.00 | 55 | 1013.5 |
| 20260901160414 | 31 | 162 | 4.8 | 14.5 | 0.00 | 0.00 | 0.00 | 53 | 1013.5 |
| 20260901155914 | 30 | 265 | 3.2 | 9.7 | 0.00 | 0.00 | 0.00 | 60 | 1013.4 |
| 20260901155415 | 30 | 254 | 4.8 | 9.7 | 0.00 | 0.00 | 0.00 | 55 | 1013.3 |
| 20260901154913 | 30 | 190 | 4.8 | 8.0 | 0.00 | 0.00 | 0.00 | 60 | 1013.3 |
| 20260901153913 | 30 | 221 | 3.2 | 8.0 | 0.00 | 0.00 | 0.00 | 57 | 1013.4 |
| 20260901153413 | 30 | 194 | 3.2 | 8.0 | 0.00 | 0.00 | 0.00 | 56 | 1013.4 |
| 20260901152413 | 29 | 167 | 3.2 | 8.0 | 0.00 | 0.00 | 0.00 | 58 | 1013.3 |
| 20260901150912 | 29 | 196 | 3.2 | 9.7 | 0.00 | 0.00 | 0.00 | 63 | 1013.4 |
| 20260901150412 | 28 | 234 | 3.2 | 11.3 | 0.00 | 0.00 | 0.00 | 62 | 1013.4 |
| 20260901145413 | 28 | 238 | 4.8 | 11.3 | 0.00 | 0.00 | 0.00 | 63 | 1013.5 |
| 20260901144912 | 28 | 245 | 6.4 | 11.3 | 0.00 | 0.00 | 0.00 | 64 | 1013.5 |
| 20260901144411 | 28 | 196 | 4.8 | 11.3 | 0.00 | 0.00 | 0.00 | 63 | 1013.6 |
| 20260901143412 | 28 | 193 | 3.2 | 8.0 | 0.00 | 0.00 | 0.00 | 65 | 1013.6 |
| 20260901142911 | 28 | 168 | 3.2 | 8.0 | 0.00 | 0.00 | 0.00 | 66 | 1013.7 |
| 20260901142411 | 28 | 153 | 4.8 | 8.0 | 0.00 | 0.00 | 0.00 | 69 | 1013.6 |
| 20260901141911 | 27 | 167 | 3.2 | 8.0 | 0.00 | 0.00 | 0.00 | 70 | 1013.7 |
| 20260901141411 | 27 | 146 | 3.2 | 8.0 | 0.00 | 0.00 | 0.00 | 71 | 1013.8 |
| 20260901140911 | 27 | 165 | 3.2 | 8.0 | 0.00 | 0.00 | 0.00 | 72 | 1013.8 |
| 20260901135410 | 26 | 137 | 3.2 | 8.0 | 0.00 | 0.00 | 0.00 | 75 | 1013.9 |
| 20260901134908 | 26 | 178 | 3.2 | 6.4 | 0.00 | 0.00 | 0.00 | 77 | 1013.9 |
| 20260901134409 | 26 | 186 | 3.2 | 4.8 | 0.00 | 0.00 | 0.00 | 78 | 1013.8 |
| 20260901133909 | 25 | 188 | 3.2 | 6.4 | 0.00 | 0.00 | 0.00 | 80 | 1013.7 |
| 20260901133408 | 25 | 126 | 1.6 | 6.4 | 0.00 | 0.00 | 0.00 | 82 | 1013.7 |
| 20260901131907 | 24 | 137 | 1.6 | 4.8 | 0.00 | 0.00 | 0.00 | 88 | 1013.7 |
| 20260901131406 | 23 | 146 | 1.6 | 4.8 | 0.00 | 0.00 | 0.00 | 88 | 1013.8 |
| 20260901130407 | 23 | 265 | 0.0 | 3.2 | 0.00 | 0.00 | 0.00 | 88 | 1013.8 |
| 20260901125405 | 23 | 93 | 3.2 | 4.8 | 0.00 | 0.00 | 0.00 | 89 | 1013.7 |
| 20260901124906 | 22 | 126 | 1.6 | 3.2 | 0.00 | 0.00 | 0.00 | 89 | 1013.6 |
| 20260901124406 | 22 | 51 | 0.0 | 3.2 | 0.00 | 0.00 | 0.00 | 89 | 1013.7 |
| 20260901123905 | 22 | 68 | 0.0 | 3.2 | 0.00 | 0.00 | 0.00 | 89 | 1013.6 |
| 20260901123405 | 22 | 126 | 0.0 | 3.2 | 0.00 | 0.00 | 0.00 | 89 | 1013.5 |
| 20260901122905 | 22 | 61 | 1.6 | 3.2 | 0.00 | 0.00 | 0.00 | 89 | 1013.5 |
| 20260901122404 | 22 | 334 | 1.6 | 3.2 | 0.00 | 0.00 | 0.00 | 89 | 1013.3 |
| 20260901121906 | 22 | 247 | 0.0 | 3.2 | 0.00 | 0.00 | 0.00 | 89 | 1013.0 |
| 20260901121404 | 22 | 51 | 1.6 | 3.2 | 0.00 | 0.00 | 0.00 | 89 | 1013.0 |
| 20260901120904 | 22 | 93 | 0.0 | 4.8 | 0.00 | 0.00 | 0.00 | 89 | 1012.9 |
| 20260901120403 | 22 | 120 | 1.6 | 4.8 | 0.00 | 0.00 | 0.00 | 90 | 1012.8 |
| 20260901115858 | 22 | 120 | 1.6 | 4.8 | 0.00 | 0.00 | 0.00 | 90 | 1012.7 |
| 20260901114859 | 22 | 111 | 1.6 | 4.8 | 0.00 | 0.00 | 0.00 | 90 | 1012.8 |
| 20260901114400 | 22 | 120 | 1.6 | 4.8 | 0.00 | 0.00 | 0.00 | 90 | 1012.7 |
| 20260901113859 | 22 | 132 | 3.2 | 4.8 | 0.00 | 0.00 | 0.00 | 90 | 1012.8 |
| 20260901113358 | 22 | 105 | 3.2 | 4.8 | 0.00 | 0.00 | 0.00 | 90 | 1012.8 |
| 20260901112858 | 22 | 146 | 3.2 | 4.8 | 0.00 | 0.00 | 0.00 | 90 | 1012.9 |
| 20260901112357 | 22 | 164 | 3.2 | 6.4 | 0.00 | 0.00 | 0.00 | 90 | 1012.9 |
| 20260901111358 | 22 | 120 | 1.6 | 3.2 | 0.00 | 0.00 | 0.00 | 90 | 1013.0 |
| 20260901110858 | 23 | 265 | 0.0 | 1.6 | 0.00 | 0.00 | 0.00 | 90 | 1013.0 |
| 20260901110357 | 23 | 93 | 0.0 | 3.2 | 0.00 | 0.00 | 0.00 | 90 | 1013.1 |
| 20260901105853 | 23 | 137 | 0.0 | 3.2 | 0.00 | 0.00 | 0.00 | 90 | 1013.1 |
| 20260901105352 | 23 | 162 | 0.0 | 4.8 | 0.00 | 0.00 | 0.00 | 90 | 1013.1 |
| 20260901104852 | 23 | 137 | 1.6 | 6.4 | 0.00 | 0.00 | 0.00 | 90 | 1013.1 |
| 20260901104353 | 23 | 144 | 3.2 | 6.4 | 0.00 | 0.00 | 0.00 | 90 | 1013.0 |
| 20260901103352 | 23 | 153 | 3.2 | 6.4 | 0.00 | 0.00 | 0.00 | 90 | 1013.1 |
| 20260901102351 | 23 | 121 | 1.6 | 4.8 | 0.00 | 0.00 | 0.00 | 90 | 1013.1 |
| 20260901101353 | 23 | 108 | 3.2 | 6.4 | 0.00 | 0.00 | 0.00 | 90 | 1013.1 |
| 20260901100852 | 23 | 133 | 3.2 | 6.4 | 0.00 | 0.00 | 0.00 | 90 | 1013.1 |
| 20260901100352 | 23 | 162 | 1.6 | 4.8 | 0.00 | 0.00 | 0.00 | 90 | 1013.1 |
| 20260901095852 | 23 | 120 | 1.6 | 4.8 | 0.00 | 0.00 | 0.00 | 90 | 1013.3 |
| 20260901095352 | 22 | 120 | 1.6 | 4.8 | 0.00 | 0.00 | 0.00 | 90 | 1013.3 |
| 20260901094851 | 22 | 120 | 0.0 | 3.2 | 0.00 | 0.00 | 0.00 | 90 | 1013.4 |
| 20260901094351 | 22 | 9 | 0.0 | 1.6 | 0.00 | 0.00 | 0.00 | 90 | 1013.5 |
| 20260901093851 | 22 | 196 | 0.0 | 1.6 | 0.00 | 0.00 | 0.00 | 90 | 1013.5 |
| 20260901093352 | 22 | 221 | 0.0 | 1.6 | 0.00 | 0.00 | 0.00 | 90 | 1013.5 |
| 20260901092851 | 22 | 221 | 0.0 | 1.6 | 0.00 | 0.00 | 0.00 | 90 | 1013.4 |
| 20260901092351 | 22 | 9 | 0.0 | 1.6 | 0.00 | 0.00 | 0.00 | 90 | 1013.5 |
| 20260901091836 | 22 | 334 | 1.6 | 3.2 | 0.00 | 0.00 | 0.00 | 90 | 1013.6 |
| 20260901091336 | 22 | 137 | 1.6 | 3.2 | 0.00 | 0.00 | 0.00 | 90 | 1013.5 |
| 20260901090326 | 22 | 111 | 1.6 | 3.2 | 0.00 | 0.00 | 0.00 | 90 | 1013.5 |
| 20260901085826 | 22 | 178 | 1.6 | 3.2 | 0.00 | 0.00 | 0.00 | 90 | 1013.4 |
| 20260901085327 | 22 | 153 | 1.6 | 3.2 | 0.00 | 0.00 | 0.00 | 90 | 1013.4 |
| 20260901084825 | 22 | 9 | 0.0 | 3.2 | 0.00 | 0.00 | 0.00 | 90 | 1013.5 |
| 20260901084325 | 22 | 309 | 1.6 | 3.2 | 0.00 | 0.00 | 0.00 | 90 | 1013.5 |
| 20260901083825 | 22 | 325 | 1.6 | 3.2 | 0.00 | 0.00 | 0.00 | 90 | 1013.5 |
| 20260901083325 | 22 | 22 | 1.6 | 1.6 | 0.00 | 0.00 | 0.00 | 90 | 1013.4 |
| 20260901082325 | 22 | 325 | 0.0 | 1.6 | 0.00 | 0.00 | 0.00 | 90 | 1013.4 |
| 20260901081825 | 23 | 26 | 0.0 | 1.6 | 0.00 | 0.00 | 0.00 | 90 | 1013.3 |
| 20260901081325 | 23 | 137 | 0.0 | 1.6 | 0.00 | 0.00 | 0.00 | 90 | 1013.4 |
| 20260901080824 | 23 | 120 | 0.0 | 1.6 | 0.00 | 0.00 | 0.00 | 90 | 1013.5 |
| 20260901080324 | 23 | 67 | 0.0 | 1.6 | 0.00 | 0.00 | 0.00 | 90 | 1013.5 |
| 20260901075824 | 23 | 51 | 0.0 | 3.2 | 0.00 | 0.00 | 0.00 | 90 | 1013.5 |
| 20260901075324 | 23 | 205 | 0.0 | 3.2 | 0.00 | 0.00 | 0.00 | 90 | 1013.4 |
| 20260901074824 | 23 | 238 | 1.6 | 4.8 | 0.00 | 0.00 | 0.00 | 90 | 1013.5 |
| 20260901074325 | 23 | 247 | 3.2 | 4.8 | 0.00 | 0.00 | 0.00 | 90 | 1013.6 |
| 20260901073824 | 23 | 232 | 1.6 | 4.8 | 0.00 | 0.00 | 0.00 | 90 | 1013.6 |
| 20260901073324 | 23 | 119 | 1.6 | 4.8 | 0.00 | 0.00 | 0.00 | 90 | 1013.6 |
| 20260901072823 | 23 | 93 | 1.6 | 4.8 | 0.00 | 0.00 | 0.00 | 90 | 1013.7 |
| 20260901072323 | 23 | 51 | 0.0 | 4.8 | 0.00 | 0.00 | 0.00 | 90 | 1013.8 |
| 20260901071822 | 23 | 257 | 3.2 | 4.8 | 0.00 | 0.00 | 0.00 | 90 | 1013.6 |
| 20260901071322 | 23 | 9 | 1.6 | 4.8 | 0.00 | 0.00 | 0.00 | 90 | 1013.7 |
| 20260901070823 | 23 | 51 | 1.6 | 9.7 | 0.00 | 0.00 | 0.00 | 90 | 1013.7 |
| 20260901070322 | 23 | 41 | 3.2 | 12.9 | 0.00 | 0.00 | 0.00 | 90 | 1013.8 |
| 20260901065822 | 23 | 269 | 3.2 | 12.9 | 0.00 | 0.00 | 0.00 | 90 | 1013.9 |
| 20260901065324 | 23 | 309 | 1.6 | 4.8 | 0.00 | 0.00 | 0.00 | 90 | 1013.6 |
| 20260901064822 | 22 | 61 | 3.2 | 4.8 | 0.00 | 0.00 | 0.00 | 90 | 1013.8 |
| 20260901063822 | 22 | 19 | 1.6 | 3.2 | 0.00 | 0.00 | 0.00 | 90 | 1013.7 |
| 20260901063322 | 23 | 9 | 0.0 | 3.2 | 0.00 | 0.00 | 0.00 | 90 | 1013.8 |
| 20260901062822 | 23 | 205 | 0.0 | 1.6 | 0.00 | 0.00 | 0.00 | 90 | 1013.8 |
| 20260901062323 | 23 | 238 | 0.0 | 1.6 | 0.00 | 0.00 | 0.00 | 90 | 1013.9 |
| 20260901061311 | 23 | 221 | 1.6 | 1.6 | 0.00 | 0.00 | 0.00 | 90 | 1013.9 |
| 20260901060811 | 23 | 178 | 0.0 | 1.6 | 0.00 | 0.00 | 0.00 | 90 | 1013.9 |
| 20260901060311 | 23 | 265 | 0.0 | 1.6 | 0.00 | 0.00 | 0.00 | 90 | 1013.9 |
| 20260901055811 | 23 | 265 | 0.0 | 1.6 | 0.00 | 0.00 | 0.00 | 89 | 1014.0 |
| 20260901055311 | 23 | 9 | 1.6 | 1.6 | 0.00 | 0.00 | 0.00 | 90 | 1013.9 |
| 20260901054811 | 23 | 265 | 0.0 | 1.6 | 0.00 | 0.00 | 0.00 | 90 | 1014.1 |
| 20260901054311 | 23 | 265 | 0.0 | 1.6 | 0.00 | 0.00 | 0.00 | 89 | 1014.0 |
| 20260901053810 | 23 | 309 | 0.0 | 1.6 | 0.00 | 0.00 | 0.00 | 89 | 1014.0 |
| 20260901053310 | 23 | 309 | 0.0 | 1.6 | 0.00 | 0.00 | 0.00 | 89 | 1014.1 |
| 20260901052810 | 23 | 9 | 0.0 | 1.6 | 0.00 | 0.00 | 0.00 | 89 | 1014.1 |
| 20260901052307 | 23 | 9 | 1.6 | 1.6 | 0.00 | 0.00 | 0.00 | 89 | 1014.1 |
| 20260901051806 | 23 | 309 | 0.0 | 1.6 | 0.00 | 0.00 | 0.00 | 89 | 1014.0 |
| 20260901051300 | 23 | 93 | 0.0 | 1.6 | 0.00 | 0.00 | 0.00 | 89 | 1014.0 |
| 20260901050754 | 23 | 291 | 0.0 | 1.6 | 0.00 | 0.00 | 0.00 | 89 | 1013.9 |
| 20260901050248 | 23 | 309 | 0.0 | 1.6 | 0.00 | 0.00 | 0.00 | 89 | 1013.9 |
| 20260901045749 | 23 | 51 | 0.0 | 1.6 | 0.00 | 0.00 | 0.00 | 89 | 1013.9 |
| 20260901045243 | 23 | 334 | 1.6 | 1.6 | 0.00 | 0.00 | 0.00 | 89 | 1014.0 |
| 20260901044737 | 23 | 26 | 0.0 | 1.6 | 0.00 | 0.00 | 0.00 | 89 | 1013.9 |
| 20260901044238 | 23 | 309 | 0.0 | 1.6 | 0.00 | 0.00 | 0.00 | 89 | 1014.0 |
| 20260901043738 | 24 | 221 | 0.0 | 1.6 | 0.00 | 0.00 | 0.00 | 89 | 1013.9 |
| 20260901043238 | 24 | 309 | 0.0 | 1.6 | 0.00 | 0.00 | 0.00 | 89 | 1013.8 |
| 20260901042733 | 24 | 178 | 0.0 | 1.6 | 0.00 | 0.00 | 0.00 | 89 | 1014.0 |
| 20260901042232 | 24 | 309 | 0.0 | 1.6 | 0.00 | 0.00 | 0.00 | 89 | 1013.9 |
| 20260901041732 | 24 | 178 | 1.6 | 1.6 | 0.00 | 0.00 | 0.00 | 89 | 1014.0 |
| 20260901040722 | 24 | 178 | 0.0 | 3.2 | 0.00 | 0.00 | 0.00 | 88 | 1014.0 |
| 20260901040222 | 24 | 165 | 1.6 | 3.2 | 0.00 | 0.00 | 0.00 | 88 | 1014.0 |
| 20260901035222 | 24 | 221 | 1.6 | 3.2 | 0.00 | 0.00 | 0.00 | 88 | 1013.7 |
| 20260901034721 | 24 | 325 | 0.0 | 1.6 | 0.00 | 0.00 | 0.00 | 88 | 1013.7 |
| 20260901033716 | 24 | 26 | 1.6 | 3.2 | 0.00 | 0.00 | 0.00 | 88 | 1013.6 |
| 20260901033215 | 25 | 9 | 1.6 | 3.2 | 0.00 | 0.00 | 0.00 | 88 | 1013.7 |
| 20260901032716 | 25 | 325 | 0.0 | 3.2 | 0.00 | 0.00 | 0.00 | 88 | 1013.7 |
| 20260901032215 | 25 | 265 | 0.0 | 3.2 | 0.00 | 0.00 | 0.00 | 88 | 1013.5 |
| 20260901031715 | 25 | 119 | 1.6 | 3.2 | 0.00 | 0.00 | 0.00 | 87 | 1013.5 |
| 20260901031214 | 25 | 9 | 0.0 | 3.2 | 0.00 | 0.00 | 0.00 | 87 | 1013.5 |
| 20260901030714 | 25 | 137 | 1.6 | 3.2 | 0.00 | 0.00 | 0.00 | 87 | 1013.5 |
| 20260901025716 | 25 | 309 | 0.0 | 1.6 | 0.00 | 0.00 | 0.00 | 87 | 1013.5 |
| 20260901025215 | 25 | 265 | 0.0 | 1.6 | 0.00 | 0.00 | 0.00 | 87 | 1013.4 |
| 20260901024714 | 25 | 265 | 0.0 | 1.6 | 0.00 | 0.00 | 0.00 | 87 | 1013.4 |